|
Cosmos 2237 Rocket - Orbit
|
NJAA Observatory;
02:05:37
| Home | Info | Passes |
|
View from above orbital plane
|
View from above satellite
|
Ground track
|
The orbit data is extracted from the following two-line orbital elements,
1 22566U 93016B 13145.53211782 .00000118 00000-0 85819-4 0 7941
2 22566 071.0097 300.8243 0011994 237.8244 122.1716 14.14783596 41419
| Epoch (UTC): | 25 May 2013 12:46:14 |
| Eccentricity: | 0.0011994 |
| inclination: | 71.0097° |
| perigee height: | 834 km |
| apogee height: | 852 km |
| right ascension of ascending node: | 300.8243° |
| argument of perigee: | 237.8244° |
| revolutions per day: | 14.14783596 |
| mean anomaly at epoch: | 122.1716° |
| orbit number at epoch: | 4141 |
The dashed part of the orbit path shows where the satellite is in the earth's shadow,
|
|